Salem, Oregon, United States (97301)
Lat: 44.94N, Lon: 123.03W
Wx Zone: ORZ007
Local Info
Past Weather Observations for Sunday, September 28, 2014

NOTE: This archive is for the closest National Weather Service station to Salem. Information may differ from the station used for current weather conditions.

Click here for Long-term Archive

Time Weather Temperature Dewpoint Humidity Pressure Winds Precip Visibility
23:56
Clear
55°F / 13°C 50°F / 10°C 82% 29.92 in
(1013 mb)
SSW 5.8 mph
(SSW 9 kph)
- 10SM
22:56
Clear
57°F / 14°C 50°F / 10°C 77% 29.92 in
(1013 mb)
S 3.5 mph
(S 6 kph)
- 10SM
21:56
Clear
61°F / 16°C 52°F / 11°C 72% 29.92 in
(1013 mb)
Calm - 10SM
20:56
Clear
63°F / 17°C 54°F / 12°C 73% 29.92 in
(1013 mb)
ENE 3.5 mph
(ENE 6 kph)
- 10SM
19:56
Clear
66°F / 19°C 48°F / 9°C 52% 29.92 in
(1013 mb)
NW 3.5 mph
(NW 6 kph)
- 10SM
18:56
Clear
73°F / 23°C 48°F / 9°C 41% 29.92 in
(1013 mb)
Calm - 10SM
17:56
Clear
73°F / 23°C 52°F / 11°C 47% 29.89 in
(1012 mb)
SSE 3.5 mph
(SSE 6 kph)
- 10SM
16:56
Clear
79°F / 26°C 52°F / 11°C 39% 29.89 in
(1012 mb)
ESE 4.6 mph
(ESE 7 kph)
- 10SM
15:56
Clear
79°F / 26°C 50°F / 10°C 37% 29.89 in
(1012 mb)
NNW 6.9 mph
(NNW 11 kph)
- 10SM
14:56
Clear
77°F / 25°C 52°F / 11°C 42% 29.89 in
(1012 mb)
NE 6.9 mph
(NE 11 kph)
- 10SM
13:56
Clear
77°F / 25°C 54°F / 12°C 44% 29.92 in
(1013 mb)
N 5.8 mph
(N 9 kph)
- 10SM
12:56
Clear
73°F / 23°C 54°F / 12°C 50% 29.92 in
(1013 mb)
NE 6.9 mph
(NE 11 kph)
- 10SM
11:56
Clear
72°F / 22°C 54°F / 12°C 53% 29.95 in
(1014 mb)
N 8.1 mph
(N 13 kph)
- 10SM
10:56
Clear
66°F / 19°C 54°F / 12°C 64% 29.98 in
(1015 mb)
NNE 5.8 mph
(NNE 9 kph)
- 10SM
09:56
Clear
64°F / 18°C 54°F / 12°C 68% 29.98 in
(1015 mb)
N 10.4 mph
(N 17 kph)
- 10SM
08:56
Clear
61°F / 16°C 52°F / 11°C 72% 29.98 in
(1015 mb)
N 6.9 mph
(N 11 kph)
- 10SM
07:56
Clear
57°F / 14°C 52°F / 11°C 82% 30.01 in
(1016 mb)
N 6.9 mph
(N 11 kph)
- 10SM
06:56
Clear
54°F / 12°C 50°F / 10°C 88% 30.01 in
(1016 mb)
NNW 4.6 mph
(NNW 7 kph)
- 10SM
05:56
Clear
48°F / 9°C 46°F / 8°C 94% 29.98 in
(1015 mb)
Calm - 10SM
04:56
Clear
50°F / 10°C 48°F / 9°C 94% 30.01 in
(1016 mb)
Calm - 10SM
03:56
Clear
52°F / 11°C 48°F / 9°C 88% 30.01 in
(1016 mb)
Calm - 10SM
02:56
Clear
50°F / 10°C 48°F / 9°C 94% 30.01 in
(1016 mb)
Calm - 10SM
01:56
Clear
Fog And Mist
52°F / 11°C 48°F / 9°C 88% 30.01 in
(1016 mb)
Calm - 6SM
00:56
Clear
54°F / 12°C 52°F / 11°C 94% 30.01 in
(1016 mb)
Calm - 10SM
Time Weather Temperature Dewpoint Humidity Pressure Winds Precip Visibility


Weather for websites

WeatherForYou.com, LLC is not responsible for any damages or problems caused by this service. Current weather conditions are obtained from the closest station including government and personal stations which may have varying degrees of accuracy. Weather forecasts are derived from the NOAA NDFD. Like all things, this site belongs to Jesus Christ... He just trusts me to maintain it. If you have any questions or comments email webmaster@weatherforyou.com

Copyright © 2014, WeatherForYou.com LLC. All rights reserved.